Spokane Fairchild, WA
on Tuesday, February 5, 2013

Tuesday
Previous Day Next Day
Daily Summary
 ActualAverage (KGEG)Record (KGEG)
Temperature
Mean Temperature °F / °C 32°F / 0°C  
Max Temperature 37°F / 3°C 37°F / 3°C 53°F / 11°C (1963)
Min Temperature 26°F / -3°C 26°F / -3°C -15°F / -26°C (1883)
Degree Days
Heating Degree Days 34 33  
Month to date heating degree days 167  
Since 1 July heating degree days 4100  
Cooling Degree Days 0 0  
Month to date cooling degree days 0  
Year to date cooling degree days 0  
Moisture
Dew Point 31°F / -1°C   
Average Humidity 95    
Maximum Humidity 100    
Minimum Humidity 81    
Precipitation
Precipitation 0.00 in / 0.00 cm 0.05 in / 1.27 cm 0.57 in / 1.45 cm (1996)
Month to date precipitation 0.23  
Year to date precipitation 2.02  
Snow
Snow 0.00 in / 0.00 cm 0.30 in / 0.76 cm 3.30 in / 8.38 cm (1946)
Month to date snowfall 1.5  
Since 1 July snowfall 35.0  
Snow Depth in / cm   
Wind
Wind Speed 6 mph / 10 km/h   
Max Wind Speed 15 mph / 24 km/h   
Max Gust Speed mph / km/h   
Visibility 6 miles / 10 kilometers   
Events Fog , Rain   

Key: T is trace of precipitation, MM is missing value
Source: NWS Daily Summary
Time(PST)TemperatureDew PointHumidity Pressure Visibility Wind DirectionWind SpeedGust SpeedPrecipitationEvents Conditions
12:37 AM 32.0°F / 0.0°C 32.0°F / 0.0°C 100% 29.93 in / 1013.4 hPa 4.0 miles / 6.4 kilometers NE 2.3 mph / 3.7 km/h - N/A   Scattered Clouds
12:58 AM 31.3°F / -0.4°C 30.9°F / -0.6°C 99% 29.99 in / 1015.4 hPa 5.0 miles / 8.0 kilometers NNE 5.8 mph / 9.3 km/h - N/A   Partly Cloudy
1:11 AM 32.0°F / 0.0°C 32.0°F / 0.0°C 100% 29.92 in / 1013.1 hPa 2.5 miles / 4.0 kilometers NE 5.8 mph / 9.3 km/h - N/A   Clear
1:16 AM 32.0°F / 0.0°C 32.0°F / 0.0°C 100% 29.92 in / 1013.1 hPa 3.0 miles / 4.8 kilometers NE 4.6 mph / 7.4 km/h - N/A   Clear
1:23 AM 32.0°F / 0.0°C 32.0°F / 0.0°C 100% 29.92 in / 1013.1 hPa 3.0 miles / 4.8 kilometers ENE 3.5 mph / 5.6 km/h - N/A   Clear
1:58 AM 30.7°F / -0.7°C 30.6°F / -0.8°C 99% 29.99 in / 1015.4 hPa 5.0 miles / 8.0 kilometers ENE 3.5 mph / 5.6 km/h - 0.00 in / 0.0 cm   Partly Cloudy
2:13 AM 32.0°F / 0.0°C 32.0°F / 0.0°C 100% 29.91 in / 1012.8 hPa 5.0 miles / 8.0 kilometers East 3.5 mph / 5.6 km/h - N/A   Scattered Clouds
2:26 AM 32.0°F / 0.0°C 32.0°F / 0.0°C 100% 29.91 in / 1012.8 hPa 4.0 miles / 6.4 kilometers East 3.5 mph / 5.6 km/h - N/A   Mostly Cloudy
2:58 AM 30.7°F / -0.7°C 30.6°F / -0.8°C 99% 29.97 in / 1014.7 hPa 4.0 miles / 6.4 kilometers NE 3.5 mph / 5.6 km/h - 0.00 in / 0.0 cm   Overcast
3:44 AM 32.0°F / 0.0°C 32.0°F / 0.0°C 100% 29.87 in / 1011.4 hPa 8.0 miles / 12.9 kilometers NE 8.1 mph / 13.0 km/h - N/A   Overcast
3:58 AM 32.0°F / -0.0°C 31.6°F / -0.2°C 99% 29.94 in / 1013.7 hPa 10.0 miles / 16.1 kilometers ENE 6.9 mph / 11.1 km/h - 0.00 in / 0.0 cm   Overcast
4:13 AM 32.0°F / 0.0°C 32.0°F / 0.0°C 100% 29.86 in / 1011.1 hPa 6.0 miles / 9.7 kilometers East 5.8 mph / 9.3 km/h - N/A   Overcast
4:17 AM 32.0°F / 0.0°C 32.0°F / 0.0°C 100% 29.86 in / 1011.1 hPa 6.0 miles / 9.7 kilometers East 5.8 mph / 9.3 km/h - N/A   Overcast
4:27 AM 32.0°F / 0.0°C 32.0°F / 0.0°C 100% 29.85 in / 1010.7 hPa 5.0 miles / 8.0 kilometers East 6.9 mph / 11.1 km/h - N/A   Overcast
4:58 AM 30.4°F / -0.9°C 30.2°F / -1.0°C 99% 29.91 in / 1012.6 hPa 5.0 miles / 8.0 kilometers ENE 4.6 mph / 7.4 km/h - 0.00 in / 0.0 cm   Mostly Cloudy
5:58 AM 29.3°F / -1.5°C 29.1°F / -1.6°C 99% 29.92 in / 1013.0 hPa 5.0 miles / 8.0 kilometers North 5.8 mph / 9.3 km/h - N/A   Clear
6:03 AM 28.4°F / -2.0°C 28.4°F / -2.0°C 100% 29.83 in / 1010.0 hPa 0.8 miles / 1.2 kilometers NNE 5.8 mph / 9.3 km/h - N/A   Clear
6:08 AM 30.2°F / -1.0°C 28.4°F / -2.0°C 93% 29.83 in / 1010.0 hPa 0.5 miles / 0.8 kilometers NNE 5.8 mph / 9.3 km/h - N/A Fog Light Freezing Fog
6:13 AM 28.4°F / -2.0°C 28.4°F / -2.0°C 100% 29.83 in / 1010.0 hPa 0.2 miles / 0.4 kilometers NNE 5.8 mph / 9.3 km/h - N/A Fog Light Freezing Fog
6:28 AM 28.4°F / -2.0°C 28.4°F / -2.0°C 100% 29.83 in / 1010.0 hPa 0.5 miles / 0.8 kilometers NNE 5.8 mph / 9.3 km/h - N/A Fog Light Freezing Fog
6:33 AM 28.4°F / -2.0°C 28.4°F / -2.0°C 100% 29.83 in / 1010.0 hPa 0.5 miles / 0.8 kilometers NNE 5.8 mph / 9.3 km/h - N/A Fog Light Freezing Fog
6:38 AM 28.4°F / -2.0°C 28.4°F / -2.0°C 100% 29.83 in / 1010.0 hPa 0.8 miles / 1.2 kilometers NNE 6.9 mph / 11.1 km/h - N/A   Clear
6:48 AM 28.4°F / -2.0°C 28.4°F / -2.0°C 100% 29.83 in / 1010.0 hPa 1.0 miles / 1.6 kilometers NE 4.6 mph / 7.4 km/h - N/A   Clear
6:58 AM 28.0°F / -2.2°C 27.9°F / -2.3°C 99% 29.90 in / 1012.5 hPa 0.5 miles / 0.8 kilometers NE 4.6 mph / 7.4 km/h - N/A Fog Light Freezing Fog
7:03 AM 26.6°F / -3.0°C 26.6°F / -3.0°C 100% 29.83 in / 1010.0 hPa 0.2 miles / 0.4 kilometers NE 5.8 mph / 9.3 km/h - N/A Fog Light Freezing Fog
7:08 AM 26.6°F / -3.0°C 26.6°F / -3.0°C 100% 29.82 in / 1009.7 hPa 0.2 miles / 0.4 kilometers NE 3.5 mph / 5.6 km/h - N/A Fog Light Freezing Fog
7:10 AM 26.6°F / -3.0°C 26.6°F / -3.0°C 100% 29.82 in / 1009.7 hPa 0.2 miles / 0.4 kilometers ENE 2.3 mph / 3.7 km/h - N/A Fog Light Freezing Fog
7:25 AM 26.6°F / -3.0°C 26.6°F / -3.0°C 100% 29.83 in / 1010.0 hPa 0.2 miles / 0.4 kilometers ENE 4.6 mph / 7.4 km/h - N/A Fog Light Freezing Fog
7:26 AM 26.6°F / -3.0°C 26.6°F / -3.0°C 100% 29.82 in / 1009.7 hPa 0.2 miles / 0.4 kilometers East 5.8 mph / 9.3 km/h - N/A Fog Light Freezing Fog
7:29 AM 26.6°F / -3.0°C 24.8°F / -4.0°C 93% 29.82 in / 1009.7 hPa 0.2 miles / 0.4 kilometers East 3.5 mph / 5.6 km/h - N/A Fog , Rain Light Freezing Rain
7:36 AM 26.6°F / -3.0°C 26.6°F / -3.0°C 100% 29.83 in / 1010.0 hPa 0.2 miles / 0.4 kilometers ENE 3.5 mph / 5.6 km/h - N/A Fog Light Freezing Fog
7:41 AM 26.6°F / -3.0°C 26.6°F / -3.0°C 100% 29.82 in / 1009.7 hPa 0.2 miles / 0.4 kilometers ENE 3.5 mph / 5.6 km/h - N/A Fog Light Freezing Fog
7:46 AM 26.6°F / -3.0°C 26.6°F / -3.0°C 100% 29.83 in / 1010.0 hPa 0.2 miles / 0.4 kilometers East 5.8 mph / 9.3 km/h - N/A Fog Light Freezing Fog
7:51 AM 26.6°F / -3.0°C 26.6°F / -3.0°C 100% 29.82 in / 1009.7 hPa 0.8 miles / 1.2 kilometers Variable 1.2 mph / 1.9 km/h - N/A   Overcast
7:56 AM 28.4°F / -2.0°C 26.6°F / -3.0°C 93% 29.82 in / 1009.7 hPa 1.0 miles / 1.6 kilometers Variable 2.3 mph / 3.7 km/h - N/A   Overcast
7:59 AM 27.7°F / -2.4°C 27.3°F / -2.6°C 99% 29.90 in / 1012.3 hPa 1.0 miles / 1.6 kilometers East 4.6 mph / 7.4 km/h - N/A   Overcast
8:04 AM 28.4°F / -2.0°C 28.4°F / -2.0°C 100% 29.82 in / 1009.7 hPa 2.0 miles / 3.2 kilometers Variable 1.2 mph / 1.9 km/h - N/A   Overcast
8:09 AM 28.4°F / -2.0°C 28.4°F / -2.0°C 100% 29.82 in / 1009.7 hPa 4.0 miles / 6.4 kilometers East 4.6 mph / 7.4 km/h - N/A   Overcast
8:39 AM 28.4°F / -2.0°C 28.4°F / -2.0°C 100% 29.82 in / 1009.7 hPa 2.5 miles / 4.0 kilometers ENE 2.3 mph / 3.7 km/h - N/A   Partly Cloudy
8:58 AM 29.7°F / -1.3°C 29.5°F / -1.4°C 99% 29.90 in / 1012.3 hPa 1.8 miles / 2.8 kilometers ENE 3.5 mph / 5.6 km/h - 0.00 in / 0.0 cm   Clear
9:03 AM 30.2°F / -1.0°C 30.2°F / -1.0°C 100% 29.82 in / 1009.7 hPa 1.5 miles / 2.4 kilometers ENE 1.2 mph / 1.9 km/h - N/A   Partly Cloudy
9:08 AM 32.0°F / 0.0°C 30.2°F / -1.0°C 93% 29.82 in / 1009.7 hPa 1.8 miles / 2.8 kilometers NE 1.2 mph / 1.9 km/h - N/A   Scattered Clouds
9:13 AM 32.0°F / 0.0°C 32.0°F / 0.0°C 100% 29.82 in / 1009.7 hPa 2.0 miles / 3.2 kilometers Calm Calm - N/A   Mostly Cloudy
9:18 AM 32.0°F / 0.0°C 32.0°F / 0.0°C 100% 29.82 in / 1009.7 hPa 3.0 miles / 4.8 kilometers NE 1.2 mph / 1.9 km/h - N/A   Mostly Cloudy
9:50 AM 33.8°F / 1.0°C 32.0°F / 0.0°C 93% 29.83 in / 1010.0 hPa 10.0 miles / 16.1 kilometers SSW 3.5 mph / 5.6 km/h - N/A   Partly Cloudy
9:58 AM 34.9°F / 1.6°C 33.8°F / 1.0°C 96% 29.90 in / 1012.3 hPa 10.0 miles / 16.1 kilometers SSW 4.6 mph / 7.4 km/h - 0.00 in / 0.0 cm   Mostly Cloudy
10:19 AM 35.6°F / 2.0°C 33.8°F / 1.0°C 93% 29.83 in / 1010.0 hPa 10.0 miles / 16.1 kilometers South 10.4 mph / 16.7 km/h - N/A   Mostly Cloudy
10:58 AM 36.5°F / 2.5°C 35.2°F / 1.8°C 95% 29.88 in / 1011.8 hPa 10.0 miles / 16.1 kilometers South 6.9 mph / 11.1 km/h - 0.00 in / 0.0 cm   Mostly Cloudy
11:20 AM 37.4°F / 3.0°C 35.6°F / 2.0°C 93% 29.81 in / 1009.4 hPa 10.0 miles / 16.1 kilometers South 10.4 mph / 16.7 km/h - N/A   Overcast
11:43 AM 37.4°F / 3.0°C 33.8°F / 1.0°C 87% 29.81 in / 1009.4 hPa 10.0 miles / 16.1 kilometers South 10.4 mph / 16.7 km/h - N/A   Overcast
11:58 AM 37.6°F / 3.1°C 34.0°F / 1.1°C 87% 29.87 in / 1011.4 hPa 10.0 miles / 16.1 kilometers SSW 6.9 mph / 11.1 km/h - 0.00 in / 0.0 cm   Overcast
11:59 AM 37.4°F / 3.0°C 33.8°F / 1.0°C 87% 29.81 in / 1009.4 hPa 10.0 miles / 16.1 kilometers SSW 6.9 mph / 11.1 km/h - N/A   Light Drizzle
12:04 PM 37.4°F / 3.0°C 33.8°F / 1.0°C 87% 29.81 in / 1009.4 hPa 10.0 miles / 16.1 kilometers SSW 8.1 mph / 13.0 km/h - N/A   Overcast
12:06 PM 37.4°F / 3.0°C 33.8°F / 1.0°C 87% 29.81 in / 1009.4 hPa 10.0 miles / 16.1 kilometers SSW 10.4 mph / 16.7 km/h - N/A   Light Drizzle
12:17 PM 37.4°F / 3.0°C 33.8°F / 1.0°C 87% 29.80 in / 1009.0 hPa 10.0 miles / 16.1 kilometers South 10.4 mph / 16.7 km/h - N/A   Overcast
12:27 PM 37.4°F / 3.0°C 33.8°F / 1.0°C 87% 29.80 in / 1009.0 hPa 10.0 miles / 16.1 kilometers SSW 12.7 mph / 20.4 km/h - N/A   Light Drizzle
12:37 PM 37.4°F / 3.0°C 32.0°F / 0.0°C 81% 29.80 in / 1009.0 hPa 10.0 miles / 16.1 kilometers SW 6.9 mph / 11.1 km/h - N/A   Mostly Cloudy
12:53 PM 37.4°F / 3.0°C 32.0°F / 0.0°C 81% 29.81 in / 1009.4 hPa 10.0 miles / 16.1 kilometers SSW 11.5 mph / 18.5 km/h - N/A   Light Drizzle
12:58 PM 37.9°F / 3.3°C 33.6°F / 0.9°C 84% 29.87 in / 1011.4 hPa 10.0 miles / 16.1 kilometers SW 10.4 mph / 16.7 km/h - 0.00 in / 0.0 cm   Light Drizzle
1:17 PM 37.4°F / 3.0°C 33.8°F / 1.0°C 87% 29.81 in / 1009.4 hPa 10.0 miles / 16.1 kilometers SW 10.4 mph / 16.7 km/h - N/A   Scattered Clouds
1:35 PM 37.4°F / 3.0°C 33.8°F / 1.0°C 87% 29.80 in / 1009.0 hPa 10.0 miles / 16.1 kilometers SW 11.5 mph / 18.5 km/h - N/A Rain Light Rain
1:45 PM 37.4°F / 3.0°C 33.8°F / 1.0°C 87% 29.79 in / 1008.7 hPa 10.0 miles / 16.1 kilometers SSW 9.2 mph / 14.8 km/h - N/A Rain Light Rain
1:55 PM 37.4°F / 3.0°C 33.8°F / 1.0°C 87% 29.81 in / 1009.4 hPa 10.0 miles / 16.1 kilometers SSW 15.0 mph / 24.1 km/h - N/A Rain Light Rain
1:56 PM 37.4°F / 3.0°C 33.8°F / 1.0°C 87% 29.81 in / 1009.4 hPa 10.0 miles / 16.1 kilometers SSW 13.8 mph / 22.2 km/h - N/A   Mostly Cloudy
1:58 PM 36.5°F / 2.5°C 33.8°F / 1.0°C 90% 29.87 in / 1011.4 hPa 10.0 miles / 16.1 kilometers SSW 15.0 mph / 24.1 km/h - 0.00 in / 0.0 cm   Mostly Cloudy
2:18 PM 37.4°F / 3.0°C 33.8°F / 1.0°C 87% 29.79 in / 1008.7 hPa 10.0 miles / 16.1 kilometers SSW 10.4 mph / 16.7 km/h - N/A Rain Light Rain
2:31 PM 37.4°F / 3.0°C 33.8°F / 1.0°C 87% 29.80 in / 1009.0 hPa 10.0 miles / 16.1 kilometers SSW 11.5 mph / 18.5 km/h - N/A   Mostly Cloudy
2:39 PM 37.4°F / 3.0°C 33.8°F / 1.0°C 87% 29.80 in / 1009.0 hPa 10.0 miles / 16.1 kilometers SSW 12.7 mph / 20.4 km/h - N/A Rain Light Rain
2:58 PM 37.0°F / 2.8°C 34.5°F / 1.4°C 91% 29.87 in / 1011.4 hPa 10.0 miles / 16.1 kilometers South 15.0 mph / 24.1 km/h - 0.00 in / 0.0 cm Rain Light Rain
2:59 PM 37.4°F / 3.0°C 33.8°F / 1.0°C 87% 29.81 in / 1009.4 hPa 10.0 miles / 16.1 kilometers SSW 15.0 mph / 24.1 km/h - N/A   Overcast
3:07 PM 37.4°F / 3.0°C 33.8°F / 1.0°C 87% 29.80 in / 1009.0 hPa 10.0 miles / 16.1 kilometers South 15.0 mph / 24.1 km/h - N/A Rain Light Rain
3:21 PM 37.4°F / 3.0°C 33.8°F / 1.0°C 87% 29.80 in / 1009.0 hPa 10.0 miles / 16.1 kilometers South 12.7 mph / 20.4 km/h - N/A   Overcast
3:54 PM 37.4°F / 3.0°C 33.8°F / 1.0°C 87% 29.80 in / 1009.0 hPa 10.0 miles / 16.1 kilometers South 12.7 mph / 20.4 km/h - N/A   Scattered Clouds
3:58 PM 37.9°F / 3.3°C 34.3°F / 1.3°C 87% 29.86 in / 1011.1 hPa 10.0 miles / 16.1 kilometers South 12.7 mph / 20.4 km/h - 0.00 in / 0.0 cm   Scattered Clouds
3:59 PM 37.4°F / 3.0°C 33.8°F / 1.0°C 87% 29.80 in / 1009.0 hPa 10.0 miles / 16.1 kilometers South 10.4 mph / 16.7 km/h - N/A   Partly Cloudy
4:58 PM 36.9°F / 2.7°C 34.7°F / 1.5°C 92% 29.88 in / 1011.8 hPa 10.0 miles / 16.1 kilometers SSW 9.2 mph / 14.8 km/h - 0.00 in / 0.0 cm   Mostly Cloudy
5:58 PM 36.7°F / 2.6°C 34.9°F / 1.6°C 93% 29.89 in / 1012.0 hPa 10.0 miles / 16.1 kilometers SSW 9.2 mph / 14.8 km/h - N/A   Clear
6:37 PM 35.6°F / 2.0°C 35.6°F / 2.0°C 100% 29.82 in / 1009.7 hPa 10.0 miles / 16.1 kilometers South 9.2 mph / 14.8 km/h - N/A   Partly Cloudy
6:47 PM 35.6°F / 2.0°C 35.6°F / 2.0°C 100% 29.83 in / 1010.0 hPa 10.0 miles / 16.1 kilometers South 10.4 mph / 16.7 km/h - N/A   Partly Cloudy
6:58 PM 35.6°F / 2.0°C 34.9°F / 1.6°C 97% 29.90 in / 1012.5 hPa 10.0 miles / 16.1 kilometers South 10.4 mph / 16.7 km/h - 0.00 in / 0.0 cm   Clear
7:58 PM 35.1°F / 1.7°C 34.3°F / 1.3°C 97% 29.90 in / 1012.5 hPa 10.0 miles / 16.1 kilometers South 9.2 mph / 14.8 km/h - N/A   Clear
8:58 PM 34.3°F / 1.3°C 33.4°F / 0.8°C 97% 29.92 in / 1013.2 hPa 10.0 miles / 16.1 kilometers South 8.1 mph / 13.0 km/h - N/A   Partly Cloudy
9:27 PM 33.8°F / 1.0°C 32.0°F / 0.0°C 93% 29.85 in / 1010.7 hPa 10.0 miles / 16.1 kilometers South 9.2 mph / 14.8 km/h - N/A   Scattered Clouds
9:46 PM 32.0°F / 0.0°C 32.0°F / 0.0°C 100% 29.86 in / 1011.1 hPa 10.0 miles / 16.1 kilometers South 11.5 mph / 18.5 km/h - N/A   Clear
9:58 PM 33.6°F / 0.9°C 32.5°F / 0.3°C 96% 29.93 in / 1013.3 hPa 10.0 miles / 16.1 kilometers South 11.5 mph / 18.5 km/h - 0.00 in / 0.0 cm   Partly Cloudy
10:58 PM 32.5°F / 0.3°C 31.5°F / -0.3°C 96% 29.94 in / 1013.8 hPa 10.0 miles / 16.1 kilometers South 9.2 mph / 14.8 km/h - N/A   Partly Cloudy
11:58 PM 32.5°F / 0.3°C 31.3°F / -0.4°C 95% 29.95 in / 1014.2 hPa 10.0 miles / 16.1 kilometers South 12.7 mph / 20.4 km/h - N/A   Mostly Cloudy
Moon Phase
Feb. 05 Feb. 10 Feb. 17 Feb. 25 Mar. 04
Sunrise:07:11 AM (PST) Moon Rise:03:06 AM (PST)2/5
Sunset:04:58 PM (PST) Moon Set:12:12 PM (PST)2/5

Copyright © 2014 The Weather Underground, Inc.